Tracking 19245 objects as of 17-Aug-2018
HD Live streaming from Space Station
objects crossing your sky now

COSMOS 1974

Track COSMOS 1974 now!
COSMOS 1974 is classified as:


NORAD ID: 19554
Int'l Code: 1988-092A
Perigee: 6,059.5 km
Apogee: 34,321.3 km
Inclination: 69.8 °
Period: 718.0 minutes
Semi major axis: 26561 km
RCS: 16.1296 m2 (large)
Launch date: October 3, 1988
Source: Commonwealth of Independent States (former USSR) (CIS)
Launch site: PLESETSK MISSILE AND SPACE COMPLEX (PKMTR)
aabbcc
Your satellite tracking list
Your tracking list is empty




NASA's NSSDC Master Catalog

Two Line Element Set (TLE):
1 19554U 88092A   18228.70380590 +.00000502 +00000-0 +00000-0 0  9991
2 19554 069.8347 296.3978 5320093 139.0224 252.7914 02.00551835218730
Source of the keplerian elements: AFSPC